カタログに戻る

STARLINK-33591

運用中通信VLEO
NORAD 62777·PAYLOAD·🇺🇸 United States

打ち上げ Jan 21, 2025 から Vandenberg Space Force Base

Loading…

次のパス (今後24時間)

TLE

最新Source: CelesTrak SupGP

元期: Sep 15, 2026, 03:00 UTC

1 62777C 25015V   26258.12548611  .00032688  00000+0  96569-3 0  2585
2 62777  53.1564 158.7242 0001297  82.3078  94.7103 15.34376353    16

AllMySatでSTARLINK-33591をリアルタイム追跡

Download on the App Store